Weather History for KCPS - June, 2013

Change the Weather History Date:

Sunday, June 30, 2013

  Actual Average Record
Temperature  
Mean Temperature 70 °F -  
Max Temperature 79 °F 90 °F 102 °F (2012)
Min Temperature 64 °F 73 °F 57 °F (2004)
Cooling Degree Days 4    
Growing Degree Days 20 (Base 50)    
Moisture  
Dew Point 62 °F    
Average Humidity 77    
Maximum Humidity 88    
Minimum Humidity 62    
Precipitation  
Precipitation 0.18 in - - ()
Sea Level Pressure  
Sea Level Pressure 29.82 in    
Wind  
Wind Speed 11 mph (North)    
Max Wind Speed 22 mph    
Max Gust Speed 29 mph    
Visibility 10 miles    
Events Rain    
Averages and records for this station are not official NWS values.
T = Trace of Precipitation, MM = Missing Value Source: NWS Daily Summary

Daily Weather History Graph

Daily Weather History Graph

Search for Another Location

Airport or City:

Trip Planner

Search our weather history database for the weather conditions in past years. The results will help you decide how hot, cold, wet, or windy it might be!

Date:

Astronomy

Jun. 30, 2013 Rise Set
Actual Time 5:39 AM CDT 8:28 PM CDT
Civil Twilight 5:07 AM CDT 9:00 PM CDT
Nautical Twilight 4:28 AM CDT 9:40 PM CDT
Astronomical Twilight 3:42 AM CDT 10:25 PM CDT
Moon 12:34 AM CDT (6/30) 1:46 PM CDT (6/30)
Length of Visible Light 15h 52m
Length of Day
14h 49m
Last Quarter, 45% of the Moon is Illuminated
Jun 30
Last Quarter
Jul 8
New
Jul 15
First Quarter
Jul 22
Full
Jul 29
Last Quarter

Hourly Weather History & Observations

Time (CDT) Temp. Dew Point Humidity Pressure Visibility Wind Dir Wind Speed Gust Speed Precip Events Conditions
12:07 AM 68.0 °F 62.6 °F 83% 29.74 in 10.0 mi NNW 10.4 mph - N/A   Overcast
12:17 AM 68.0 °F 62.6 °F 83% 29.74 in 10.0 mi NNW 11.5 mph - N/A   Overcast
12:24 AM 68.0 °F 62.6 °F 83% 29.74 in 10.0 mi NNW 9.2 mph 18.4 mph N/A   Overcast
12:35 AM 66.2 °F 62.6 °F 88% 29.74 in 10.0 mi NNW 9.2 mph - N/A   Overcast
12:53 AM 68.0 °F 62.1 °F 81% 29.73 in 10.0 mi North 11.5 mph - N/A   Overcast
1:03 AM 68.0 °F 62.6 °F 83% 29.74 in 10.0 mi North 10.4 mph - N/A   Overcast
1:53 AM 66.9 °F 62.1 °F 84% 29.73 in 10.0 mi North 12.7 mph - 0.00 in   Overcast
2:53 AM 66.9 °F 62.1 °F 84% 29.74 in 10.0 mi North 12.7 mph - N/A   Overcast
3:53 AM 66.9 °F 61.0 °F 81% 29.75 in 10.0 mi North 16.1 mph 21.9 mph N/A   Overcast
4:16 AM 66.2 °F 60.8 °F 83% 29.77 in 10.0 mi North 13.8 mph - N/A   Overcast
4:32 AM 66.2 °F 60.8 °F 83% 29.77 in 10.0 mi North 12.7 mph - N/A   Overcast
4:53 AM 64.9 °F 60.1 °F 84% 29.76 in 10.0 mi North 12.7 mph - N/A   Mostly Cloudy
5:53 AM 66.9 °F 57.9 °F 73% 29.78 in 10.0 mi North 12.7 mph - N/A   Overcast
6:53 AM 66.0 °F 60.1 °F 81% 29.81 in 10.0 mi North 9.2 mph - N/A   Overcast
7:53 AM 66.9 °F 59.0 °F 76% 29.82 in 10.0 mi North 11.5 mph - N/A   Overcast
8:38 AM 69.8 °F 59.0 °F 68% 29.84 in 10.0 mi NNW 9.2 mph - N/A   Overcast
8:53 AM 68.0 °F 59.0 °F 73% 29.83 in 10.0 mi North 11.5 mph - N/A   Overcast
9:37 AM 71.6 °F 60.8 °F 69% 29.84 in 10.0 mi NNW 12.7 mph - N/A   Mostly Cloudy
9:44 AM 69.8 °F 60.8 °F 73% 29.84 in 10.0 mi North 11.5 mph - N/A   Overcast
9:53 AM 70.0 °F 60.1 °F 71% 29.84 in 10.0 mi North 9.2 mph - N/A   Overcast
10:53 AM 72.0 °F 61.0 °F 68% 29.84 in 10.0 mi North 11.5 mph - N/A   Overcast
11:36 AM 71.6 °F 60.8 °F 69% 29.86 in 10.0 mi NNE 12.7 mph - N/A   Overcast
11:53 AM 71.1 °F 62.1 °F 73% 29.85 in 10.0 mi NNE 9.2 mph - N/A   Overcast
12:53 PM 72.0 °F 62.1 °F 71% 29.86 in 10.0 mi NNE 10.4 mph - N/A   Overcast
1:53 PM 75.9 °F 62.1 °F 62% 29.84 in 10.0 mi North 15.0 mph - N/A   Mostly Cloudy
2:53 PM 75.0 °F 61.0 °F 62% 29.84 in 10.0 mi NNW 16.1 mph 21.9 mph N/A   Mostly Cloudy
3:09 PM 69.8 °F 62.6 °F 78% 29.86 in 7.0 mi North 21.9 mph 28.8 mph 0.07 in Rain Rain
3:53 PM 70.0 °F 64.9 °F 84% 29.85 in 7.0 mi North 12.7 mph - 0.12 in Rain Light Rain
4:53 PM 73.9 °F 64.0 °F 71% 29.85 in 10.0 mi North 15.0 mph 20.7 mph 0.00 in   Overcast
5:53 PM 71.1 °F 66.0 °F 84% 29.86 in 10.0 mi North 4.6 mph - 0.06 in   Mostly Cloudy
6:53 PM 71.1 °F 62.1 °F 73% 29.86 in 10.0 mi North 13.8 mph - N/A   Clear
7:32 PM 69.8 °F 62.6 °F 78% 29.87 in 10.0 mi NNW 10.4 mph - N/A   Partly Cloudy
7:53 PM 69.1 °F 62.1 °F 78% 29.86 in 10.0 mi NNW 10.4 mph - N/A   Scattered Clouds
8:53 PM 70.0 °F 62.1 °F 76% 29.87 in 10.0 mi NNW 6.9 mph - N/A   Overcast
9:53 PM 69.1 °F 62.1 °F 78% 29.90 in 10.0 mi NNW 6.9 mph - N/A   Mostly Cloudy
10:53 PM 70.0 °F 62.1 °F 76% 29.90 in 10.0 mi North 8.1 mph - N/A   Overcast
11:53 PM 70.0 °F 62.1 °F 76% 29.91 in 10.0 mi North 6.9 mph - N/A   Overcast